Time,TemperatureF,DewpointF,PressureIn,WindDirection,WindDirectionDegrees,WindSpeedMPH,WindSpeedGustMPH,Humidity,HourlyPrecipIn,Conditions,Clouds,dailyrainin,SoftwareType,DateUTC
2013-10-19 00:00:00,41.0,-99.9,-100.00,SW,231,5.0,11.0,-999,0.00,,,0.00,,2013-10-19 05:00:00,
2013-10-19 00:43:00,41.0,-99.9,-100.00,SW,231,5.0,11.0,-999,0.00,,,0.00,,2013-10-19 05:43:00,
2013-10-19 00:52:00,41.0,-99.9,-100.00,SW,231,5.0,11.0,-999,0.00,,,0.00,,2013-10-19 05:52:00,
2013-10-19 01:00:00,40.0,-99.9,-100.00,SW,220,5.0,11.0,-999,0.00,,,0.00,,2013-10-19 06:00:00,
2013-10-19 01:42:00,40.0,-99.9,-100.00,SW,220,5.0,11.0,-999,0.00,,,0.00,,2013-10-19 06:42:00,
2013-10-19 01:52:00,40.0,-99.9,-100.00,SW,220,5.0,11.0,-999,0.00,,,0.00,,2013-10-19 06:52:00,
2013-10-19 02:00:00,41.0,-99.9,-100.00,SW,222,5.0,11.0,-999,0.00,,,0.00,,2013-10-19 07:00:00,
2013-10-19 02:42:00,41.0,-99.9,-100.00,SW,222,5.0,11.0,-999,0.00,,,0.00,,2013-10-19 07:42:00,
2013-10-19 02:53:00,41.0,-99.9,-100.00,SW,222,5.0,11.0,-999,0.00,,,0.00,,2013-10-19 07:53:00,
2013-10-19 03:00:00,41.0,-99.9,-100.00,SW,230,6.0,11.0,-999,0.00,,,0.00,,2013-10-19 08:00:00,
2013-10-19 03:42:00,41.0,-99.9,-100.00,SW,230,6.0,11.0,-999,0.00,,,0.00,,2013-10-19 08:42:00,
2013-10-19 03:52:00,41.0,-99.9,-100.00,SW,230,6.0,11.0,-999,0.00,,,0.00,,2013-10-19 08:52:00,
2013-10-19 04:00:00,41.0,-99.9,-100.00,SW,227,5.0,13.0,-999,0.00,,,0.00,,2013-10-19 09:00:00,
2013-10-19 04:43:00,41.0,-99.9,-100.00,SW,227,5.0,13.0,-999,0.00,,,0.00,,2013-10-19 09:43:00,
2013-10-19 04:54:00,41.0,-99.9,-100.00,SW,227,5.0,13.0,-999,0.00,,,0.00,,2013-10-19 09:54:00,
2013-10-19 05:00:00,40.0,-99.9,-100.00,WSW,237,3.0,7.0,-999,0.00,,,0.00,,2013-10-19 10:00:00,
2013-10-19 05:42:00,40.0,-99.9,-100.00,WSW,237,3.0,7.0,-999,0.00,,,0.00,,2013-10-19 10:42:00,
2013-10-19 05:53:00,40.0,-99.9,-100.00,WSW,237,3.0,7.0,-999,0.00,,,0.00,,2013-10-19 10:53:00,
2013-10-19 06:00:00,38.0,-99.9,-100.00,SW,224,3.0,7.0,-999,0.00,,,0.00,,2013-10-19 11:00:00,
2013-10-19 06:42:00,38.0,-99.9,-100.00,SW,224,3.0,7.0,-999,0.00,,,0.00,,2013-10-19 11:42:00,
2013-10-19 06:52:00,38.0,-99.9,-100.00,SW,224,3.0,7.0,-999,0.00,,,0.00,,2013-10-19 11:52:00,
2013-10-19 07:00:00,37.0,-99.9,-100.00,SW,231,4.0,7.0,-999,0.00,,,0.00,,2013-10-19 12:00:00,
2013-10-19 07:43:00,37.0,-99.9,-100.00,SW,231,4.0,7.0,-999,0.00,,,0.00,,2013-10-19 12:43:00,
2013-10-19 07:52:00,37.0,-99.9,-100.00,SW,231,4.0,7.0,-999,0.00,,,0.00,,2013-10-19 12:52:00,
2013-10-19 08:00:00,37.0,-99.9,-100.00,SW,225,4.0,13.0,-999,0.00,,,0.00,,2013-10-19 13:00:00,
2013-10-19 08:52:00,37.0,-99.9,-100.00,SW,225,4.0,13.0,-999,0.00,,,0.00,,2013-10-19 13:52:00,
2013-10-19 09:00:00,40.0,-99.9,-100.00,SW,226,5.0,12.0,-999,0.00,,,0.00,,2013-10-19 14:00:00,
2013-10-19 09:42:00,40.0,-99.9,-100.00,SW,226,5.0,12.0,-999,0.00,,,0.00,,2013-10-19 14:42:00,
2013-10-19 09:53:00,40.0,-99.9,-100.00,SW,226,5.0,12.0,-999,0.00,,,0.00,,2013-10-19 14:53:00,
2013-10-19 10:00:00,44.0,-99.9,-100.00,SW,217,4.0,11.0,-999,0.00,,,0.00,,2013-10-19 15:00:00,
2013-10-19 10:44:00,44.0,-99.9,-100.00,SW,217,4.0,11.0,-999,0.00,,,0.00,,2013-10-19 15:44:00,
2013-10-19 10:55:00,44.0,-99.9,-100.00,SW,217,4.0,11.0,-999,0.00,,,0.00,,2013-10-19 15:55:00,
2013-10-19 11:00:00,47.0,-99.9,-100.00,SW,222,6.0,16.0,-999,0.00,,,0.00,,2013-10-19 16:00:00,
2013-10-19 11:43:00,47.0,-99.9,-100.00,SW,222,6.0,16.0,-999,0.00,,,0.00,,2013-10-19 16:43:00,
2013-10-19 11:54:00,47.0,-99.9,-100.00,SW,222,6.0,16.0,-999,0.00,,,0.00,,2013-10-19 16:54:00,
2013-10-19 12:00:00,50.0,-99.9,-100.00,SW,224,7.0,15.0,-999,0.00,,,0.00,,2013-10-19 17:00:00,
2013-10-19 12:43:00,50.0,-99.9,-100.00,SW,224,7.0,15.0,-999,0.00,,,0.00,,2013-10-19 17:43:00,
2013-10-19 12:52:00,50.0,-99.9,-100.00,SW,224,7.0,15.0,-999,0.00,,,0.00,,2013-10-19 17:52:00,
2013-10-19 14:00:00,54.0,-99.9,-100.00,WSW,254,4.0,15.0,-999,0.00,,,0.00,,2013-10-19 19:00:00,
2013-10-19 14:52:00,54.0,-99.9,-100.00,WSW,254,4.0,15.0,-999,0.00,,,0.00,,2013-10-19 19:52:00,
2013-10-19 15:00:00,56.0,-99.9,-100.00,WNW,295,2.0,7.0,-999,0.00,,,0.00,,2013-10-19 20:00:00,
2013-10-19 15:42:00,56.0,-99.9,-100.00,WNW,295,2.0,7.0,-999,0.00,,,0.00,,2013-10-19 20:42:00,
2013-10-19 15:52:00,56.0,-99.9,-100.00,WNW,295,2.0,7.0,-999,0.00,,,0.00,,2013-10-19 20:52:00,
2013-10-19 16:00:00,57.0,-99.9,-100.00,West,280,4.0,12.0,-999,0.00,,,0.00,,2013-10-19 21:00:00,
2013-10-19 16:44:00,57.0,-99.9,-100.00,West,280,4.0,12.0,-999,0.00,,,0.00,,2013-10-19 21:44:00,
2013-10-19 16:54:00,57.0,-99.9,-100.00,West,280,4.0,12.0,-999,0.00,,,0.00,,2013-10-19 21:54:00,
2013-10-19 17:00:00,57.0,-99.9,-100.00,WSW,238,4.0,9.0,-999,0.00,,,0.00,,2013-10-19 22:00:00,
2013-10-19 17:43:00,57.0,-99.9,-100.00,WSW,238,4.0,9.0,-999,0.00,,,0.00,,2013-10-19 22:43:00,
2013-10-19 17:53:00,57.0,-99.9,-100.00,WSW,238,4.0,9.0,-999,0.00,,,0.00,,2013-10-19 22:53:00,
2013-10-19 18:00:00,56.0,-99.9,-100.00,NW,312,3.0,11.0,-999,0.00,,,0.00,,2013-10-19 23:00:00,
2013-10-19 18:53:00,56.0,-99.9,-100.00,NW,312,3.0,11.0,-999,0.00,,,0.00,,2013-10-19 23:53:00,
2013-10-19 19:00:00,53.0,-99.9,-100.00,WNW,290,2.0,5.0,-999,0.00,,,0.00,,2013-10-20 00:00:00,
2013-10-19 19:52:00,53.0,-99.9,-100.00,WNW,290,2.0,5.0,-999,0.00,,,0.00,,2013-10-20 00:52:00,
2013-10-19 20:00:00,45.0,-99.9,-100.00,SSE,166,2.0,5.0,-999,0.00,,,0.00,,2013-10-20 01:00:00,
2013-10-19 20:53:00,45.0,-99.9,-100.00,SSE,166,2.0,5.0,-999,0.00,,,0.00,,2013-10-20 01:53:00,
2013-10-19 21:00:00,47.0,-99.9,-100.00,SSE,157,2.0,3.0,-999,0.00,,,0.00,,2013-10-20 02:00:00,
2013-10-19 21:42:00,47.0,-99.9,-100.00,SSE,157,2.0,3.0,-999,0.00,,,0.00,,2013-10-20 02:42:00,
2013-10-19 21:52:00,47.0,-99.9,-100.00,SSE,157,2.0,3.0,-999,0.00,,,0.00,,2013-10-20 02:52:00,
2013-10-19 22:00:00,-999.0,-99.9,-100.00,WSW,241,2.0,4.0,-999,-99.99,,,-99.99,,2013-10-20 03:00:00,
2013-10-19 22:44:00,48.0,-99.9,-100.00,WSW,241,2.0,4.0,-999,0.00,,,0.00,,2013-10-20 03:44:00,
2013-10-19 22:55:00,48.0,-99.9,-100.00,WSW,241,2.0,4.0,-999,0.00,,,0.00,,2013-10-20 03:55:00,
2013-10-19 23:00:00,47.0,-99.9,-100.00,South,172,1.0,3.0,-999,0.00,,,0.00,,2013-10-20 04:00:00,
2013-10-19 23:44:00,47.0,-99.9,-100.00,South,172,1.0,3.0,-999,0.00,,,0.00,,2013-10-20 04:44:00,
2013-10-19 23:54:00,47.0,-99.9,-100.00,South,172,1.0,3.0,-999,0.00,,,0.00,,2013-10-20 04:54:00,